Wind_Speed
31 33 34 37 41 44 45 49 51 37 33 31 31 27 30 31 34 33 28 23 23 16 15 8 7 15 30 44 57 69 80 89 97 96 91 83 81 68 64 67 65 67 83
32 31 35 37 41 44 46 50 45 33 30 34 25 31 32 32 37 39 38 48 35 34 23 24 27 36 52 64 72 78 84 90 92 90 84 71 74 72 63 62 67 80 79
30 31 35 39 42 45 47 49 33 31 32 28 32 30 31 36 37 34 39 38 43 33 36 41 50 62 72 77 80 83 86 86 87 88 80 72 62 69 64 60 69 82 81
29 31 36 40 44 46 47 45 31 29 30 32 33 30 36 32 38 43 51 41 38 50 56 62 69 74 77 79 81 80 80 79 78 78 73 70 67 65 63 57 71 79 81
31 33 36 40 45 48 47 37 31 30 29 31 35 40 37 40 40 32 45 47 50 54 56 60 64 68 73 75 73 72 63 71 65 68 67 46 52 57 58 70 66 78 81
32 34 36 40 44 49 45 33 32 31 32 34 37 39 42 36 47 42 48 46 49 54 57 58 57 63 65 66 70 65 64 62 56 54 52 56 53 54 61 56 61 75 78
32 35 36 40 44 49 42 34 32 31 37 39 39 46 42 39 41 42 42 54 46 53 54 54 55 54 56 56 56 56 58 57 47 46 47 53 54 52 61 65 67 66 73
34 36 36 40 44 50 42 34 32 35 39 32 29 30 43 42 42 44 49 48 50 51 50 49 50 51 51 51 51 51 46 39 42 45 50 46 54 45 55 66 70 64 73
34 36 37 39 44 51 43 34 34 42 39 32 29 35 47 40 47 49 51 55 45 48 48 47 45 42 45 46 43 39 35 34 42 44 48 46 44 42 49 60 67 63 63
35 37 37 39 43 51 49 35 36 45 41 33 33 34 39 42 48 52 46 46 44 45 43 44 41 39 40 39 38 34 30 23 28 38 43 41 40 42 47 59 63 51 54
36 38 40 41 43 50 56 41 41 45 47 42 41 37 36 43 48 49 45 43 45 43 42 41 40 37 34 34 31 30 30 21 22 31 32 40 40 44 54 56 56 47 55
39 38 42 43 44 48 55 57 45 45 44 43 44 40 40 42 44 44 45 46 44 41 41 40 41 40 35 32 30 27 24 19 26 29 31 32 35 39 46 54 54 46 52
44 40 42 45 46 48 52 56 59 50 47 43 43 41 37 38 39 41 40 42 42 41 41 39 36 34 31 28 26 26 23 22 21 27 32 31 26 36 42 46 50 48 44
44 46 43 44 47 50 53 54 55 58 55 48 43 40 37 32 33 34 36 35 38 38 41 38 33 22 33 33 41 36 25 24 24 30 34 28 29 38 36 38 42 37 37
41 45 47 46 44 45 49 53 55 56 55 56 55 47 39 36 29 29 35 29 29 33 32 29 25 21 20 25 34 34 36 30 26 26 24 24 28 34 41 37 36 31 35
37 40 44 47 48 47 45 47 49 51 53 54 54 51 52 54 50 39 33 34 32 33 29 21 18 21 19 15 20 21 27 33 27 26 25 28 28 31 31 33 35 37 43
33 36 40 44 46 47 49 49 50 49 49 48 48 49 50 51 52 55 54 52 45 38 30 28 27 23 21 22 19 17 20 17 26 27 23 21 24 22 27 32 38 33 38
31 32 34 38 42 44 46 49 50 51 52 52 52 52 51 49 47 48 48 47 42 42 46 44 42 42 42 37 30 22 19 19 16 14 14 14 16 16 15 19 25 29 31
29 31 31 32 35 38 40 43 46 47 48 49 49 50 51 52 53 53 51 45 41 40 40 40 41 41 40 40 39 38 32 29 23 19 14 8 5 2 3 8 13 19 24
21 24 28 29 27 30 33 35 37 40 43 44 45 46 47 46 46 46 46 45 45 46 46 45 43 43 42 41 39 36 33 31 28 25 24 22 19 19 18 18 16 18 21
15 17 21 23 25 24 23 26 29 32 34 36 39 40 41 42 43 42 40 38 37 37 37 36 35 35 35 35 35 34 33 32 31 32 33 30 31 32 22 16 15 17 21
10 13 16 18 20 21 22 20 19 22 24 26 29 31 34 35 35 36 36 36 37 37 36 35 34 34 33 32 31 31 29 28 27 27 25 24 25 22 20 22 24 26 27
8 10 12 15 16 18 18 18 19 17 16 16 18 19 22 25 27 26 27 27 28 29 31 31 31 32 32 32 30 29 28 28 29 28 25 22 21 22 22 22 23 24 28
5 6 9 11 11 13 14 15 15 17 17 15 12 12 13 13 14 15 17 18 18 18 19 21 22 22 23 24 23 22 23 24 22 22 23 24 24 26 28 29 30 30 31
4 3 4 6 8 9 9 11 12 14 13 13 14 13 12 11 11 11 11 11 10 10 12 13 14 13 13 16 18 21 21 23 25 26 27 28 29 30 32 35 37 38 40
8 6 3 1 2 4 6 8 10 10 10 12 13 13 13 13 12 12 13 14 14 14 14 14 14 15 15 17 18 21 24 25 28 30 33 35 37 39 40 42 45 48 52
Wind_Direction
347 350 351 352 353 352 350 350 352 360 4 4 1 17 14 11 8 352 28 41 26 27 14 355 358 121 138 137 143 143 142 144 145 151 153 157 162 163 169 173 172 181 163
354 356 356 357 358 355 352 354 1 11 9 5 27 32 24 27 37 33 54 57 47 41 50 73 92 123 131 132 132 133 137 141 146 147 147 151 161 170 164 166 172 170 162
358 1 3 6 3 359 356 2 15 18 14 37 36 36 42 49 43 59 63 47 52 60 83 98 112 117 119 122 127 131 136 142 146 147 147 157 156 168 166 172 180 176 164
6 7 13 14 10 5 3 10 29 25 25 50 42 43 44 44 55 70 63 62 79 90 98 105 111 115 118 122 126 132 137 141 145 150 154 155 161 165 166 172 171 167 166
13 13 18 15 13 10 12 24 36 29 52 52 48 51 55 64 67 77 69 72 87 91 99 103 108 113 118 121 124 131 138 142 145 149 153 152 160 163 174 168 171 170 164
14 19 19 17 15 15 20 39 43 37 66 58 55 61 64 69 77 67 82 72 79 90 93 95 102 111 118 126 133 136 138 142 146 154 156 149 161 168 171 176 176 173 166
18 24 23 21 20 21 28 47 49 52 68 66 79 67 67 61 70 86 88 87 87 91 97 101 104 111 118 124 130 133 137 141 149 147 152 148 150 169 174 177 178 182 175
23 28 28 26 26 28 38 54 57 64 73 73 74 58 73 69 79 90 91 89 90 93 97 103 109 114 120 126 131 133 138 147 141 148 150 159 165 167 170 176 179 178 176
29 35 33 32 33 34 45 59 66 69 70 75 69 60 74 83 89 89 88 86 88 95 98 102 105 112 121 125 127 131 138 155 158 149 149 157 172 172 175 181 184 184 185
35 41 39 38 39 40 48 65 74 73 73 79 72 76 84 88 91 92 94 99 93 95 96 100 105 112 116 123 124 128 133 146 165 164 151 159 170 166 176 177 183 187 191
43 46 47 48 47 47 48 67 73 77 75 75 76 81 88 95 96 98 97 95 94 96 99 98 98 103 108 112 120 122 122 132 159 160 138 151 161 166 176 180 183 189 192
52 50 53 54 56 53 52 56 72 78 78 75 73 73 79 94 95 98 97 95 97 100 100 98 100 102 104 109 112 115 124 133 149 137 147 152 148 164 185 187 194 196 192
54 57 56 60 61 59 58 57 58 69 73 75 75 73 79 89 99 99 99 98 98 95 100 102 108 101 107 112 116 116 120 131 147 138 144 146 152 165 174 186 198 198 199
55 58 61 61 63 65 64 64 63 63 68 73 76 78 75 71 81 95 98 100 102 106 102 102 109 107 90 98 95 107 130 137 136 141 145 155 163 164 171 174 189 195 205
54 57 60 64 64 64 66 66 66 65 66 68 72 75 79 85 80 86 83 87 98 103 110 121 119 105 107 98 98 92 101 119 138 136 143 155 173 172 176 181 186 199 199
55 55 58 60 65 68 68 68 67 68 68 67 69 73 79 84 90 89 88 88 83 82 76 81 95 97 87 104 93 89 77 96 129 142 154 159 162 178 184 190 192 197 208
59 58 56 57 59 62 67 71 72 72 70 70 70 68 69 72 78 83 82 82 82 84 90 83 76 76 71 68 78 77 64 71 106 111 124 142 171 178 181 191 199 204 205
61 60 59 58 59 59 61 63 66 69 71 72 73 71 70 70 70 72 76 77 79 85 87 86 85 81 80 81 80 79 75 70 73 76 91 101 116 131 153 189 204 206 215
61 60 61 60 60 61 61 62 63 64 65 66 66 67 69 70 71 72 73 74 74 74 75 75 75 76 76 75 74 74 72 68 66 63 52 36 38 52 181 192 199 207 215
59 58 59 61 63 67 67 64 64 64 66 68 68 66 65 66 67 68 69 70 69 70 70 70 71 72 71 70 70 70 69 68 64 59 52 40 29 15 360 339 317 285 263
52 52 56 58 59 60 67 71 71 72 71 71 71 69 67 69 70 69 69 68 68 69 69 68 67 67 66 67 69 70 68 66 67 66 63 57 52 43 27 3 340 325 316
56 51 49 53 58 59 59 61 63 68 75 76 75 75 73 69 66 67 66 66 66 69 71 72 71 70 70 67 65 63 60 59 58 57 51 43 34 23 4 350 340 334 327
63 56 62 63 62 58 56 57 57 56 55 64 70 70 73 75 76 72 69 65 61 63 63 61 62 62 61 62 59 56 53 53 49 45 37 29 21 15 6 356 345 331 320
95 78 67 64 62 60 59 54 49 48 50 49 46 46 49 54 59 65 65 63 57 55 55 58 56 52 50 46 44 40 35 33 30 25 15 10 6 1 357 352 340 330 326
168 133 87 66 52 48 44 42 43 43 39 34 29 28 25 17 14 15 16 15 26 37 35 26 23 24 24 24 15 11 12 6 1 358 353 348 347 342 340 338 332 327 325
207 215 243 311 39 34 28 21 17 12 12 18 19 13 5 359 355 347 342 340 339 342 340 339 346 346 346 342 343 344 345 345 343 340 341 339 336 333 333 330 328 327 326
Height
5633 5624 5615 5604 5592 5578 5565 5551 5537 5523 5514 5505 5495 5486 5475 5465 5454 5442 5430 5420 5411 5401 5391 5384 5378 5374 5377 5383 5395 5410 5428 5450 5473 5505 5532 5561 5583 5601 5620 5638 5655 5670 5681
5632 5623 5613 5602 5589 5576 5562 5549 5535 5525 5516 5507 5497 5488 5479 5469 5459 5447 5437 5427 5418 5405 5395 5388 5385 5387 5392 5403 5418 5434 5456 5479 5503 5526 5552 5576 5594 5611 5627 5641 5654 5670 5685
5631 5622 5613 5600 5588 5574 5561 5548 5536 5527 5519 5510 5502 5494 5485 5477 5468 5457 5448 5439 5433 5421 5412 5409 5408 5414 5421 5432 5446 5462 5481 5503 5522 5541 5562 5582 5603 5616 5631 5645 5659 5672 5689
5632 5623 5613 5601 5589 5575 5561 5549 5539 5532 5524 5517 5509 5502 5493 5484 5479 5469 5463 5454 5448 5441 5440 5440 5440 5442 5452 5463 5476 5493 5511 5528 5546 5561 5576 5592 5609 5623 5638 5646 5658 5673 5690
5633 5624 5615 5604 5592 5577 5564 5552 5545 5537 5530 5524 5517 5511 5504 5496 5490 5483 5481 5479 5474 5468 5468 5469 5472 5475 5481 5493 5509 5524 5535 5550 5564 5578 5590 5602 5616 5629 5640 5652 5667 5678 5693
5635 5627 5618 5607 5595 5581 5568 5558 5551 5543 5537 5533 5527 5522 5515 5510 5506 5503 5498 5495 5495 5492 5493 5495 5498 5503 5510 5519 5531 5543 5555 5570 5579 5592 5601 5614 5626 5638 5650 5660 5671 5682 5694
5638 5630 5621 5611 5599 5586 5573 5565 5559 5551 5546 5542 5537 5532 5530 5523 5518 5519 5516 5516 5516 5514 5515 5519 5523 5529 5536 5544 5553 5562 5571 5581 5589 5603 5614 5625 5636 5647 5656 5667 5679 5689 5703
5642 5635 5626 5617 5605 5592 5580 5573 5568 5560 5556 5552 5548 5544 5543 5539 5535 5536 5535 5534 5533 5534 5537 5541 5545 5551 5558 5566 5572 5581 5588 5594 5600 5612 5622 5632 5642 5653 5663 5672 5685 5699 5709
5648 5640 5632 5623 5612 5600 5589 5582 5577 5570 5566 5563 5560 5556 5555 5553 5551 5552 5551 5553 5553 5554 5557 5560 5564 5571 5576 5582 5589 5596 5601 5607 5613 5620 5633 5643 5650 5658 5668 5679 5692 5702 5710
5654 5647 5639 5630 5621 5610 5599 5592 5587 5582 5578 5576 5573 5570 5569 5568 5566 5567 5569 5570 5571 5572 5575 5578 5582 5587 5593 5599 5603 5609 5614 5620 5627 5633 5642 5650 5654 5663 5674 5685 5699 5708 5716
5661 5655 5647 5639 5630 5621 5611 5602 5597 5593 5590 5588 5586 5584 5583 5582 5581 5582 5583 5585 5586 5589 5592 5595 5599 5602 5607 5612 5616 5620 5624 5629 5636 5644 5651 5658 5665 5674 5683 5692 5701 5710 5721
5670 5663 5656 5649 5641 5633 5624 5615 5609 5605 5602 5599 5597 5597 5596 5595 5595 5596 5597 5599 5601 5604 5608 5609 5611 5615 5618 5623 5627 5630 5634 5638 5643 5651 5657 5665 5674 5682 5689 5698 5707 5714 5723
5680 5673 5666 5660 5653 5646 5639 5630 5622 5617 5613 5611 5610 5610 5609 5609 5608 5608 5609 5610 5613 5617 5618 5621 5621 5625 5627 5630 5633 5638 5644 5647 5653 5659 5664 5672 5680 5687 5695 5703 5711 5719 5726
5690 5683 5676 5671 5665 5659 5653 5647 5641 5635 5629 5625 5623 5622 5622 5623 5622 5621 5621 5622 5624 5627 5629 5633 5635 5636 5638 5639 5642 5646 5652 5656 5660 5665 5672 5679 5685 5693 5700 5707 5715 5722 5728
5700 5694 5688 5682 5677 5671 5666 5662 5656 5652 5647 5642 5638 5635 5635 5635 5633 5632 5633 5633 5634 5637 5639 5641 5644 5646 5648 5649 5650 5652 5655 5659 5666 5672 5678 5685 5692 5698 5704 5712 5718 5724 5729
5710 5705 5699 5694 5688 5683 5679 5675 5671 5667 5663 5659 5656 5655 5651 5647 5644 5643 5644 5644 5645 5644 5649 5651 5653 5655 5657 5657 5659 5662 5665 5668 5672 5676 5683 5689 5694 5700 5706 5713 5718 5723 5729
5718 5714 5710 5705 5701 5696 5692 5688 5684 5681 5677 5674 5672 5669 5666 5662 5658 5653 5653 5653 5656 5657 5660 5659 5660 5663 5665 5666 5668 5671 5673 5677 5680 5684 5688 5693 5698 5703 5708 5712 5717 5721 5726
5725 5723 5720 5716 5712 5709 5704 5701 5697 5694 5691 5688 5685 5682 5679 5676 5674 5671 5669 5669 5671 5672 5670 5669 5670 5671 5671 5672 5675 5678 5681 5683 5687 5690 5694 5699 5702 5706 5710 5713 5717 5721 5724
5733 5730 5728 5726 5723 5719 5716 5713 5709 5706 5703 5700 5697 5695 5693 5691 5689 5686 5684 5686 5686 5684 5682 5682 5682 5682 5682 5682 5683 5684 5687 5690 5693 5696 5699 5702 5705 5708 5711 5713 5716 5719 5720
5739 5737 5735 5734 5731 5729 5726 5723 5721 5718 5715 5713 5710 5708 5706 5704 5702 5700 5699 5699 5698 5696 5694 5693 5693 5693 5692 5692 5692 5694 5695 5697 5699 5702 5703 5706 5708 5709 5711 5712 5713 5714 5715
5742 5742 5741 5739 5738 5736 5735 5732 5730 5727 5725 5723 5722 5720 5718 5716 5714 5713 5712 5711 5709 5707 5706 5706 5705 5703 5701 5701 5702 5703 5704 5704 5706 5706 5707 5710 5711 5710 5710 5711 5711 5712 5711
5746 5745 5744 5743 5742 5741 5740 5738 5737 5735 5733 5732 5730 5728 5727 5726 5725 5723 5722 5720 5719 5717 5717 5716 5713 5711 5711 5712 5711 5711 5712 5711 5711 5712 5713 5713 5711 5711 5709 5709 5708 5706 5704
5748 5747 5746 5746 5745 5744 5743 5742 5741 5740 5739 5738 5736 5735 5734 5733 5732 5731 5730 5729 5727 5726 5724 5723 5722 5721 5719 5718 5720 5719 5719 5717 5717 5717 5717 5716 5714 5713 5712 5709 5708 5706 5702
5749 5749 5748 5748 5748 5747 5746 5745 5744 5743 5742 5741 5740 5740 5739 5737 5736 5735 5735 5734 5733 5731 5729 5728 5726 5725 5724 5724 5725 5725 5720 5720 5720 5721 5720 5716 5711 5710 5709 5706 5704 5699 5695
5750 5749 5749 5749 5749 5749 5748 5747 5747 5746 5745 5743 5742 5741 5740 5739 5738 5737 5736 5735 5734 5733 5732 5731 5730 5728 5727 5725 5723 5722 5721 5720 5718 5714 5711 5709 5706 5705 5702 5698 5696 5691 5686
5748 5749 5749 5749 5749 5749 5748 5748 5747 5747 5746 5745 5744 5742 5740 5738 5737 5736 5735 5734 5732 5731 5730 5728 5727 5726 5726 5724 5722 5719 5716 5713 5710 5708 5705 5702 5699 5696 5692 5689 5683 5677 5672